owner,sensor,date,latitude,longitude,vertical_datum,wind_speed,wind_to_direction,wind_speed_of_gust,qcFlag 
ADCP,ioos:station:wmo:42361:1,2005-12-19T21:00:00Z,27.5500,-92.4900,122.0,9.0,30.0,99.0,'11111222,11111222,11144222' 
ADCP,ioos:station:wmo:42361:1,2005-12-19T22:00:00Z,27.5500,-92.4900,122.0,9.0,30.0,99.0,'11111222,11111222,11144222' 
ADCP,ioos:station:wmo:42361:1,2005-12-19T23:00:00Z,27.5500,-92.4900,122.0,9.0,30.0,99.0,'11111222,11111222,11144222' 
ADCP,ioos:station:wmo:42361:1,2005-12-20T00:00:00Z,27.5500,-92.4900,122.0,9.0,20.0,99.0,'11111222,11111222,11144222' 
ADCP,ioos:station:wmo:42361:1,2005-12-20T01:00:00Z,27.5500,-92.4900,122.0,12.0,30.0,99.0,'11111222,11111222,11144222' 
ADCP,ioos:station:wmo:42361:1,2005-12-20T02:00:00Z,27.5500,-92.4900,122.0,12.0,30.0,99.0,'11111222,11111222,11144222' 
ADCP,ioos:station:wmo:42361:1,2005-12-20T03:00:00Z,27.5500,-92.4900,122.0,10.0,50.0,99.0,'11111222,11111222,11144222' 
ADCP,ioos:station:wmo:42361:1,2005-12-20T04:00:00Z,27.5500,-92.4900,122.0,11.0,60.0,99.0,'11111222,11111222,11144222' 
ADCP,ioos:station:wmo:42361:1,2005-12-20T05:00:00Z,27.5500,-92.4900,122.0,9.0,60.0,99.0,'11111222,11111222,11144222' 
ADCP,ioos:station:wmo:42361:1,2005-12-20T06:00:00Z,27.5500,-92.4900,122.0,9.0,60.0,99.0,'11111222,11111222,11144222' 
ADCP,ioos:station:wmo:42361:1,2005-12-20T07:00:00Z,27.5500,-92.4900,122.0,6.0,80.0,99.0,'11111222,11111222,11144222' 
ADCP,ioos:station:wmo:42361:1,2005-12-20T08:00:00Z,27.5500,-92.4900,122.0,8.0,60.0,99.0,'11111222,11111222,11144222' 
ADCP,ioos:station:wmo:42361:1,2005-12-20T09:00:00Z,27.5500,-92.4900,122.0,8.0,60.0,99.0,'11111222,11111222,11144222' 
ADCP,ioos:station:wmo:42361:1,2005-12-20T10:00:00Z,27.5500,-92.4900,122.0,8.0,60.0,99.0,'11111222,11111222,11144222' 
ADCP,ioos:station:wmo:42361:1,2005-12-20T11:00:00Z,27.5500,-92.4900,122.0,6.0,60.0,99.0,'11111222,11111222,11144222' 
ADCP,ioos:station:wmo:42361:1,2005-12-20T12:00:00Z,27.5500,-92.4900,122.0,7.0,40.0,99.0,'11111222,11111222,11144222' 
ADCP,ioos:station:wmo:42361:1,2005-12-20T13:00:00Z,27.5500,-92.4900,122.0,9.0,50.0,99.0,'11111222,11111222,11144222' 
ADCP,ioos:station:wmo:42361:1,2005-12-20T14:00:00Z,27.5500,-92.4900,122.0,9.0,50.0,99.0,'11111222,11111222,11144222' 
ADCP,ioos:station:wmo:42361:1,2005-12-20T15:00:00Z,27.5500,-92.4900,122.0,9.0,50.0,99.0,'11111222,11111222,11144222' 
ADCP,ioos:station:wmo:42361:1,2005-12-20T16:00:00Z,27.5500,-92.4900,122.0,9.0,30.0,99.0,'11111222,11111222,11144222' 
ADCP,ioos:station:wmo:42361:1,2005-12-20T17:00:00Z,27.5500,-92.4900,122.0,8.0,70.0,99.0,'11111222,11111222,11144222' 
ADCP,ioos:station:wmo:42361:1,2005-12-20T18:00:00Z,27.5500,-92.4900,122.0,9.0,60.0,99.0,'11111222,11111222,11144222' 
ADCP,ioos:station:wmo:42361:1,2005-12-20T19:00:00Z,27.5500,-92.4900,122.0,9.0,40.0,99.0,'11111222,11111222,11144222' 
ADCP,ioos:station:wmo:42361:1,2005-12-20T20:00:00Z,27.5500,-92.4900,122.0,8.0,70.0,99.0,'11111222,11111222,11144222' 
ADCP,ioos:station:wmo:42361:1,2005-12-20T21:00:00Z,27.5500,-92.4900,122.0,9.0,60.0,99.0,'11111222,11111222,11144222' 
ADCP,ioos:station:wmo:42361:1,2005-12-20T22:00:00Z,27.5500,-92.4900,122.0,8.0,70.0,99.0,'11111222,11111222,11144222' 
ADCP,ioos:station:wmo:42361:1,2005-12-20T23:00:00Z,27.5500,-92.4900,122.0,8.0,40.0,99.0,'11111222,11111222,11144222' 
ADCP,ioos:station:wmo:42361:1,2005-12-21T00:00:00Z,27.5500,-92.4900,122.0,7.0,50.0,99.0,'11111222,11111222,11144222' 
ADCP,ioos:station:wmo:42361:1,2005-12-21T01:00:00Z,27.5500,-92.4900,122.0,6.0,80.0,99.0,'11111222,11111222,11144222' 
ADCP,ioos:station:wmo:42361:1,2005-12-21T02:00:00Z,27.5500,-92.4900,122.0,7.0,80.0,99.0,'11111222,11111222,11144222' 
ADCP,ioos:station:wmo:42361:1,2005-12-21T03:00:00Z,27.5500,-92.4900,122.0,8.0,60.0,99.0,'11111222,11111222,11144222' 
ADCP,ioos:station:wmo:42361:1,2005-12-21T04:00:00Z,27.5500,-92.4900,122.0,9.0,60.0,99.0,'11111222,11111222,11144222' 
ADCP,ioos:station:wmo:42361:1,2005-12-21T05:00:00Z,27.5500,-92.4900,122.0,11.0,60.0,99.0,'11111222,11111222,11144222' 
ADCP,ioos:station:wmo:42361:1,2005-12-21T06:00:00Z,27.5500,-92.4900,122.0,12.0,60.0,99.0,'11111222,11111222,11144222' 
ADCP,ioos:station:wmo:42361:1,2005-12-21T07:00:00Z,27.5500,-92.4900,122.0,10.0,70.0,99.0,'11111222,11111222,11144222' 
ADCP,ioos:station:wmo:42361:1,2005-12-21T08:00:00Z,27.5500,-92.4900,122.0,10.0,70.0,99.0,'11111222,11111222,11144222' 
ADCP,ioos:station:wmo:42361:1,2005-12-21T09:00:00Z,27.5500,-92.4900,122.0,9.0,60.0,99.0,'11111222,11111222,11144222' 
ADCP,ioos:station:wmo:42361:1,2005-12-21T10:00:00Z,27.5500,-92.4900,122.0,9.0,60.0,99.0,'11111222,11111222,11144222' 
ADCP,ioos:station:wmo:42361:1,2005-12-21T11:00:00Z,27.5500,-92.4900,122.0,10.0,50.0,99.0,'11111222,11111222,11144222' 
ADCP,ioos:station:wmo:42361:1,2005-12-21T12:00:00Z,27.5500,-92.4900,122.0,11.0,60.0,99.0,'11111222,11111222,11144222' 
ADCP,ioos:station:wmo:42361:1,2005-12-21T13:00:00Z,27.5500,-92.4900,122.0,11.0,50.0,99.0,'11111222,11111222,11144222' 
ADCP,ioos:station:wmo:42361:1,2005-12-21T14:00:00Z,27.5500,-92.4900,122.0,8.0,50.0,99.0,'11111222,11111222,11144222' 
ADCP,ioos:station:wmo:42361:1,2005-12-21T15:00:00Z,27.5500,-92.4900,122.0,10.0,40.0,99.0,'11111222,11111222,11144222' 
ADCP,ioos:station:wmo:42361:1,2005-12-21T16:00:00Z,27.5500,-92.4900,122.0,7.0,50.0,99.0,'11111222,11111222,11144222' 
ADCP,ioos:station:wmo:42361:1,2005-12-21T17:00:00Z,27.5500,-92.4900,122.0,8.0,40.0,99.0,'11111222,11111222,11144222' 
ADCP,ioos:station:wmo:42361:1,2005-12-21T18:00:00Z,27.5500,-92.4900,122.0,8.0,40.0,99.0,'11111222,11111222,11144222' 
ADCP,ioos:station:wmo:42361:1,2005-12-21T19:00:00Z,27.5500,-92.4900,122.0,7.0,50.0,99.0,'11111222,11111222,11144222' 
ADCP,ioos:station:wmo:42361:1,2005-12-21T20:00:00Z,27.5500,-92.4900,122.0,9.0,40.0,99.0,'11111222,11111222,11144222' 
ADCP,ioos:station:wmo:42361:1,2005-12-21T21:00:00Z,27.5500,-92.4900,122.0,12.0,30.0,99.0,'11111222,11111222,11144222' 
ADCP,ioos:station:wmo:42361:1,2005-12-21T22:00:00Z,27.5500,-92.4900,122.0,11.0,40.0,99.0,'11111222,11111222,11144222' 
ADCP,ioos:station:wmo:42361:1,2005-12-21T23:00:00Z,27.5500,-92.4900,122.0,10.0,20.0,99.0,'11111222,11111222,11144222' 
ADCP,ioos:station:wmo:42361:1,2005-12-22T00:00:00Z,27.5500,-92.4900,122.0,10.0,30.0,99.0,'11111222,11111222,11144222' 
ADCP,ioos:station:wmo:42361:1,2005-12-22T01:00:00Z,27.5500,-92.4900,122.0,9.0,30.0,99.0,'11111222,11111222,11144222' 
ADCP,ioos:station:wmo:42361:1,2005-12-22T02:00:00Z,27.5500,-92.4900,122.0,9.0,30.0,99.0,'11111222,11111222,11144222' 
ADCP,ioos:station:wmo:42361:1,2005-12-22T03:00:00Z,27.5500,-92.4900,122.0,9.0,30.0,99.0,'11111222,11111222,11144222' 
ADCP,ioos:station:wmo:42361:1,2005-12-22T04:00:00Z,27.5500,-92.4900,122.0,8.0,30.0,99.0,'11111222,11111222,11144222' 
ADCP,ioos:station:wmo:42361:1,2005-12-22T05:00:00Z,27.5500,-92.4900,122.0,7.0,40.0,99.0,'11111222,11111222,11144222' 
ADCP,ioos:station:wmo:42361:1,2005-12-22T06:00:00Z,27.5500,-92.4900,122.0,8.0,40.0,99.0,'11111222,11111222,11144222' 
ADCP,ioos:station:wmo:42361:1,2005-12-22T07:00:00Z,27.5500,-92.4900,122.0,5.0,20.0,99.0,'11111222,11111222,11144222' 
ADCP,ioos:station:wmo:42361:1,2005-12-22T08:00:00Z,27.5500,-92.4900,122.0,4.0,40.0,99.0,'11111222,11111222,11144222' 
ADCP,ioos:station:wmo:42361:1,2005-12-22T09:00:00Z,27.5500,-92.4900,122.0,6.0,10.0,99.0,'11111222,11111222,11144222' 
ADCP,ioos:station:wmo:42361:1,2005-12-22T10:00:00Z,27.5500,-92.4900,122.0,6.0,20.0,99.0,'11111222,11111222,11144222' 
ADCP,ioos:station:wmo:42361:1,2005-12-22T11:00:00Z,27.5500,-92.4900,122.0,5.0,20.0,99.0,'11111222,11111222,11144222' 
ADCP,ioos:station:wmo:42361:1,2005-12-22T12:00:00Z,27.5500,-92.4900,122.0,6.0,30.0,99.0,'11111222,11111222,11144222' 
ADCP,ioos:station:wmo:42361:1,2005-12-22T13:00:00Z,27.5500,-92.4900,122.0,7.0,20.0,99.0,'11111222,11111222,11144222' 
ADCP,ioos:station:wmo:42361:1,2005-12-22T14:00:00Z,27.5500,-92.4900,122.0,6.0,40.0,99.0,'11111222,11111222,11144222' 
ADCP,ioos:station:wmo:42361:1,2005-12-22T15:00:00Z,27.5500,-92.4900,122.0,7.0,40.0,99.0,'11111222,11111222,11144222' 
ADCP,ioos:station:wmo:42361:1,2005-12-22T16:00:00Z,27.5500,-92.4900,122.0,8.0,30.0,99.0,'11111222,11111222,11144222' 
ADCP,ioos:station:wmo:42361:1,2005-12-22T17:00:00Z,27.5500,-92.4900,122.0,7.0,50.0,99.0,'11111222,11111222,11144222' 
ADCP,ioos:station:wmo:42361:1,2005-12-22T18:00:00Z,27.5500,-92.4900,122.0,5.0,30.0,99.0,'11111222,11111222,11144222' 
ADCP,ioos:station:wmo:42361:1,2005-12-22T19:00:00Z,27.5500,-92.4900,122.0,5.0,20.0,99.0,'11111222,11111222,11144222' 
ADCP,ioos:station:wmo:42361:1,2005-12-22T20:00:00Z,27.5500,-92.4900,122.0,4.0,30.0,99.0,'11111222,11111222,11144222' 
ADCP,ioos:station:wmo:42361:1,2005-12-22T21:00:00Z,27.5500,-92.4900,122.0,4.0,60.0,99.0,'11111222,11111222,11144222' 
ADCP,ioos:station:wmo:42361:1,2005-12-22T22:00:00Z,27.5500,-92.4900,122.0,5.0,50.0,99.0,'11111222,11111222,11144222' 
ADCP,ioos:station:wmo:42361:1,2005-12-22T23:00:00Z,27.5500,-92.4900,122.0,7.0,50.0,99.0,'11111222,11111222,11144222' 
ADCP,ioos:station:wmo:42361:1,2005-12-23T00:00:00Z,27.5500,-92.4900,122.0,7.0,50.0,99.0,'11111222,11111222,11144222' 
ADCP,ioos:station:wmo:42361:1,2005-12-23T01:00:00Z,27.5500,-92.4900,122.0,3.0,90.0,99.0,'11111222,11111222,11144222' 
ADCP,ioos:station:wmo:42361:1,2005-12-23T02:00:00Z,27.5500,-92.4900,122.0,6.0,90.0,99.0,'11111222,11111222,11144222' 
ADCP,ioos:station:wmo:42361:1,2005-12-23T03:00:00Z,27.5500,-92.4900,122.0,6.0,110.0,99.0,'11111222,11111222,11144222' 
ADCP,ioos:station:wmo:42361:1,2005-12-23T04:00:00Z,27.5500,-92.4900,122.0,5.0,80.0,99.0,'11111222,11111222,11144222' 
ADCP,ioos:station:wmo:42361:1,2005-12-23T05:00:00Z,27.5500,-92.4900,122.0,4.0,100.0,99.0,'11111222,11111222,11144222' 
ADCP,ioos:station:wmo:42361:1,2005-12-23T06:00:00Z,27.5500,-92.4900,122.0,5.0,120.0,99.0,'11111222,11111222,11144222' 
ADCP,ioos:station:wmo:42361:1,2005-12-23T07:00:00Z,27.5500,-92.4900,122.0,2.0,130.0,99.0,'11111222,11111222,11144222' 
ADCP,ioos:station:wmo:42361:1,2005-12-23T08:00:00Z,27.5500,-92.4900,122.0,3.0,180.0,99.0,'11111222,11111222,11144222' 
ADCP,ioos:station:wmo:42361:1,2005-12-23T09:00:00Z,27.5500,-92.4900,122.0,2.0,240.0,99.0,'11111222,11111222,11144222' 
ADCP,ioos:station:wmo:42361:1,2005-12-23T10:00:00Z,27.5500,-92.4900,122.0,2.0,240.0,99.0,'11111222,11111222,11144222' 
ADCP,ioos:station:wmo:42361:1,2005-12-23T11:00:00Z,27.5500,-92.4900,122.0,3.0,210.0,99.0,'11111222,11111222,11144222' 
ADCP,ioos:station:wmo:42361:1,2005-12-23T12:00:00Z,27.5500,-92.4900,122.0,2.0,260.0,99.0,'11111222,11111222,11144222' 
ADCP,ioos:station:wmo:42361:1,2005-12-23T13:00:00Z,27.5500,-92.4900,122.0,3.0,230.0,99.0,'11111222,11111222,11144222' 
ADCP,ioos:station:wmo:42361:1,2005-12-23T14:00:00Z,27.5500,-92.4900,122.0,3.0,230.0,99.0,'11111222,11111222,11144222' 
ADCP,ioos:station:wmo:42361:1,2005-12-23T15:00:00Z,27.5500,-92.4900,122.0,3.0,230.0,99.0,'11111222,11111222,11144222' 
ADCP,ioos:station:wmo:42361:1,2005-12-23T16:00:00Z,27.5500,-92.4900,122.0,3.0,230.0,99.0,'11111222,11111222,11144222' 
ADCP,ioos:station:wmo:42361:1,2005-12-23T17:00:00Z,27.5500,-92.4900,122.0,3.0,230.0,99.0,'11111222,11111222,11144222' 
ADCP,ioos:station:wmo:42361:1,2005-12-23T18:00:00Z,27.5500,-92.4900,122.0,3.0,230.0,99.0,'11111222,11111222,11144222' 
ADCP,ioos:station:wmo:42361:1,2005-12-23T19:00:00Z,27.5500,-92.4900,122.0,3.0,230.0,99.0,'11111222,11111222,11144222' 
ADCP,ioos:station:wmo:42361:1,2005-12-23T20:00:00Z,27.5500,-92.4900,122.0,3.0,230.0,99.0,'11111222,11111222,11144222' 
ADCP,ioos:station:wmo:42361:1,2005-12-23T21:00:00Z,27.5500,-92.4900,122.0,3.0,230.0,99.0,'11111222,11111222,11144222' 
ADCP,ioos:station:wmo:42361:1,2005-12-23T22:00:00Z,27.5500,-92.4900,122.0,3.0,230.0,99.0,'11111222,11111222,11144222' 
ADCP,ioos:station:wmo:42361:1,2005-12-23T23:00:00Z,27.5500,-92.4900,122.0,3.0,230.0,99.0,'11111222,11111222,11144222' 
ADCP,ioos:station:wmo:42361:1,2005-12-24T00:00:00Z,27.5500,-92.4900,122.0,3.0,230.0,99.0,'11111222,11111222,11144222' 
ADCP,ioos:station:wmo:42361:1,2005-12-24T01:00:00Z,27.5500,-92.4900,122.0,2.0,100.0,99.0,'11111222,11111222,11144222' 
ADCP,ioos:station:wmo:42361:1,2005-12-24T02:00:00Z,27.5500,-92.4900,122.0,2.0,100.0,99.0,'11111222,11111222,11144222' 
ADCP,ioos:station:wmo:42361:1,2005-12-24T03:00:00Z,27.5500,-92.4900,122.0,2.0,100.0,99.0,'11111222,11111222,11144222' 
ADCP,ioos:station:wmo:42361:1,2005-12-24T04:00:00Z,27.5500,-92.4900,122.0,3.0,120.0,99.0,'11111222,11111222,11144222' 
ADCP,ioos:station:wmo:42361:1,2005-12-24T05:00:00Z,27.5500,-92.4900,122.0,4.0,170.0,99.0,'11111222,11111222,11144222' 
ADCP,ioos:station:wmo:42361:1,2005-12-24T06:00:00Z,27.5500,-92.4900,122.0,5.0,180.0,99.0,'11111222,11111222,11144222' 
ADCP,ioos:station:wmo:42361:1,2005-12-24T07:00:00Z,27.5500,-92.4900,122.0,5.0,180.0,99.0,'11111222,11111222,11144222' 
ADCP,ioos:station:wmo:42361:1,2005-12-24T08:00:00Z,27.5500,-92.4900,122.0,7.0,180.0,99.0,'11111222,11111222,11144222' 
ADCP,ioos:station:wmo:42361:1,2005-12-24T09:00:00Z,27.5500,-92.4900,122.0,8.0,190.0,99.0,'11111222,11111222,11144222' 
ADCP,ioos:station:wmo:42361:1,2005-12-24T10:00:00Z,27.5500,-92.4900,122.0,10.0,210.0,99.0,'11111222,11111222,11144222' 
ADCP,ioos:station:wmo:42361:1,2005-12-24T11:00:00Z,27.5500,-92.4900,122.0,8.0,210.0,99.0,'11111222,11111222,11144222' 
ADCP,ioos:station:wmo:42361:1,2005-12-24T12:00:00Z,27.5500,-92.4900,122.0,10.0,200.0,99.0,'11111222,11111222,11144222' 
ADCP,ioos:station:wmo:42361:1,2005-12-24T13:00:00Z,27.5500,-92.4900,122.0,10.0,200.0,99.0,'11111222,11111222,11144222' 
ADCP,ioos:station:wmo:42361:1,2005-12-24T14:00:00Z,27.5500,-92.4900,122.0,10.0,200.0,99.0,'11111222,11111222,11144222' 
ADCP,ioos:station:wmo:42361:1,2005-12-24T15:00:00Z,27.5500,-92.4900,122.0,11.0,200.0,99.0,'11111222,11111222,11144222' 
ADCP,ioos:station:wmo:42361:1,2005-12-24T16:00:00Z,27.5500,-92.4900,122.0,12.0,200.0,99.0,'11111222,11111222,11144222' 
ADCP,ioos:station:wmo:42361:1,2005-12-24T17:00:00Z,27.5500,-92.4900,122.0,14.0,210.0,99.0,'11111222,11111222,11144222' 
ADCP,ioos:station:wmo:42361:1,2005-12-24T18:00:00Z,27.5500,-92.4900,122.0,14.0,210.0,99.0,'11111222,11111222,11144222' 
ADCP,ioos:station:wmo:42361:1,2005-12-24T19:00:00Z,27.5500,-92.4900,122.0,15.0,210.0,99.0,'11111222,11111222,11144222' 
ADCP,ioos:station:wmo:42361:1,2005-12-24T20:00:00Z,27.5500,-92.4900,122.0,14.0,220.0,99.0,'11111222,11111222,11144222' 
ADCP,ioos:station:wmo:42361:1,2005-12-24T21:00:00Z,27.5500,-92.4900,122.0,8.0,270.0,99.0,'11111222,11111222,11144222' 
ADCP,ioos:station:wmo:42361:1,2005-12-24T22:00:00Z,27.5500,-92.4900,122.0,10.0,300.0,99.0,'11111222,11111222,11144222' 
ADCP,ioos:station:wmo:42361:1,2005-12-24T23:00:00Z,27.5500,-92.4900,122.0,8.0,300.0,99.0,'11111222,11111222,11144222' 
ADCP,ioos:station:wmo:42361:1,2005-12-25T00:00:00Z,27.5500,-92.4900,122.0,8.0,290.0,99.0,'11111222,11111222,11144222' 
ADCP,ioos:station:wmo:42361:1,2005-12-25T01:00:00Z,27.5500,-92.4900,122.0,8.0,300.0,99.0,'11111222,11111222,11144222' 
ADCP,ioos:station:wmo:42361:1,2005-12-25T02:00:00Z,27.5500,-92.4900,122.0,9.0,290.0,99.0,'11111222,11111222,11144222' 
ADCP,ioos:station:wmo:42361:1,2005-12-25T03:00:00Z,27.5500,-92.4900,122.0,9.0,290.0,99.0,'11111222,11111222,11144222' 
ADCP,ioos:station:wmo:42361:1,2005-12-25T04:00:00Z,27.5500,-92.4900,122.0,13.0,290.0,99.0,'11111222,11111222,11144222' 
ADCP,ioos:station:wmo:42361:1,2005-12-25T05:00:00Z,27.5500,-92.4900,122.0,9.0,300.0,99.0,'11111222,11111222,11144222' 
ADCP,ioos:station:wmo:42361:1,2005-12-25T06:00:00Z,27.5500,-92.4900,122.0,19.0,320.0,99.0,'11111222,11111222,11144222' 
ADCP,ioos:station:wmo:42361:1,2005-12-25T07:00:00Z,27.5500,-92.4900,122.0,11.0,310.0,99.0,'11111222,11111222,11144222' 
ADCP,ioos:station:wmo:42361:1,2005-12-25T08:00:00Z,27.5500,-92.4900,122.0,9.0,300.0,99.0,'11111222,11111222,11144222' 
ADCP,ioos:station:wmo:42361:1,2005-12-25T09:00:00Z,27.5500,-92.4900,122.0,12.0,310.0,99.0,'11111222,11111222,11144222' 
ADCP,ioos:station:wmo:42361:1,2005-12-25T10:00:00Z,27.5500,-92.4900,122.0,9.0,310.0,99.0,'11111222,11111222,11144222' 
ADCP,ioos:station:wmo:42361:1,2005-12-25T11:00:00Z,27.5500,-92.4900,122.0,9.0,300.0,99.0,'11111222,11111222,11144222' 
ADCP,ioos:station:wmo:42361:1,2005-12-25T12:00:00Z,27.5500,-92.4900,122.0,8.0,300.0,99.0,'11111222,11111222,11144222' 
ADCP,ioos:station:wmo:42361:1,2005-12-25T13:00:00Z,27.5500,-92.4900,122.0,5.0,280.0,99.0,'11111222,11111222,11144222' 
ADCP,ioos:station:wmo:42361:1,2005-12-25T14:00:00Z,27.5500,-92.4900,122.0,6.0,280.0,99.0,'11111222,11111222,11144222' 
ADCP,ioos:station:wmo:42361:1,2005-12-25T15:00:00Z,27.5500,-92.4900,122.0,6.0,290.0,99.0,'11111222,11111222,11144222' 
ADCP,ioos:station:wmo:42361:1,2005-12-25T16:00:00Z,27.5500,-92.4900,122.0,7.0,290.0,99.0,'11111222,11111222,11144222' 
ADCP,ioos:station:wmo:42361:1,2005-12-25T17:00:00Z,27.5500,-92.4900,122.0,7.0,300.0,99.0,'11111222,11111222,11144222' 
ADCP,ioos:station:wmo:42361:1,2005-12-25T18:00:00Z,27.5500,-92.4900,122.0,6.0,290.0,99.0,'11111222,11111222,11144222' 
ADCP,ioos:station:wmo:42361:1,2005-12-25T19:00:00Z,27.5500,-92.4900,122.0,8.0,280.0,99.0,'11111222,11111222,11144222' 
ADCP,ioos:station:wmo:42361:1,2005-12-25T20:00:00Z,27.5500,-92.4900,122.0,7.0,290.0,99.0,'11111222,11111222,11144222' 
ADCP,ioos:station:wmo:42361:1,2005-12-25T21:00:00Z,27.5500,-92.4900,122.0,10.0,290.0,99.0,'11111222,11111222,11144222' 
ADCP,ioos:station:wmo:42361:1,2005-12-25T22:00:00Z,27.5500,-92.4900,122.0,8.0,300.0,99.0,'11111222,11111222,11144222' 
ADCP,ioos:station:wmo:42361:1,2005-12-25T23:00:00Z,27.5500,-92.4900,122.0,6.0,300.0,99.0,'11111222,11111222,11144222' 
ADCP,ioos:station:wmo:42361:1,2005-12-26T00:00:00Z,27.5500,-92.4900,122.0,6.0,300.0,99.0,'11111222,11111222,11144222' 
ADCP,ioos:station:wmo:42361:1,2005-12-26T01:00:00Z,27.5500,-92.4900,122.0,9.0,310.0,99.0,'11111222,11111222,11144222' 
ADCP,ioos:station:wmo:42361:1,2005-12-26T02:00:00Z,27.5500,-92.4900,122.0,7.0,320.0,99.0,'11111222,11111222,11144222' 
ADCP,ioos:station:wmo:42361:1,2005-12-26T03:00:00Z,27.5500,-92.4900,122.0,5.0,300.0,99.0,'11111222,11111222,11144222' 
ADCP,ioos:station:wmo:42361:1,2005-12-26T04:00:00Z,27.5500,-92.4900,122.0,8.0,310.0,99.0,'11111222,11111222,11144222' 
ADCP,ioos:station:wmo:42361:1,2005-12-26T05:00:00Z,27.5500,-92.4900,122.0,4.0,300.0,99.0,'11111222,11111222,11144222' 
ADCP,ioos:station:wmo:42361:1,2005-12-26T06:00:00Z,27.5500,-92.4900,122.0,7.0,320.0,99.0,'11111222,11111222,11144222' 
ADCP,ioos:station:wmo:42361:1,2005-12-26T07:00:00Z,27.5500,-92.4900,122.0,7.0,320.0,99.0,'11111222,11111222,11144222' 
ADCP,ioos:station:wmo:42361:1,2005-12-26T08:00:00Z,27.5500,-92.4900,122.0,7.0,330.0,99.0,'11111222,11111222,11144222' 
ADCP,ioos:station:wmo:42361:1,2005-12-26T09:00:00Z,27.5500,-92.4900,122.0,2.0,310.0,99.0,'11111222,11111222,11144222' 
ADCP,ioos:station:wmo:42361:1,2005-12-26T10:00:00Z,27.5500,-92.4900,122.0,4.0,320.0,99.0,'11111222,11111222,11144222' 
ADCP,ioos:station:wmo:42361:1,2005-12-26T11:00:00Z,27.5500,-92.4900,122.0,4.0,320.0,99.0,'11111222,11111222,11144222' 
ADCP,ioos:station:wmo:42361:1,2005-12-26T12:00:00Z,27.5500,-92.4900,122.0,3.0,350.0,99.0,'11111222,11111222,11144222' 
ADCP,ioos:station:wmo:42361:1,2005-12-26T13:00:00Z,27.5500,-92.4900,122.0,3.0,350.0,99.0,'11111222,11111222,11144222' 
ADCP,ioos:station:wmo:42361:1,2005-12-26T14:00:00Z,27.5500,-92.4900,122.0,3.0,350.0,99.0,'11111222,11111222,11144222' 
ADCP,ioos:station:wmo:42361:1,2005-12-26T15:00:00Z,27.5500,-92.4900,122.0,3.0,350.0,99.0,'11111222,11111222,11144222' 
ADCP,ioos:station:wmo:42361:1,2005-12-26T16:00:00Z,27.5500,-92.4900,122.0,3.0,350.0,99.0,'11111222,11111222,11144222' 
ADCP,ioos:station:wmo:42361:1,2005-12-26T17:00:00Z,27.5500,-92.4900,122.0,2.0,220.0,99.0,'11111222,11111222,11144222' 
ADCP,ioos:station:wmo:42361:1,2005-12-26T18:00:00Z,27.5500,-92.4900,122.0,2.0,200.0,99.0,'11111222,11111222,11144222' 
ADCP,ioos:station:wmo:42361:1,2005-12-26T19:00:00Z,27.5500,-92.4900,122.0,4.0,210.0,99.0,'11111222,11111222,11144222' 
ADCP,ioos:station:wmo:42361:1,2005-12-26T20:00:00Z,27.5500,-92.4900,122.0,4.0,210.0,99.0,'11111222,11111222,11144222' 
ADCP,ioos:station:wmo:42361:1,2005-12-26T21:00:00Z,27.5500,-92.4900,122.0,3.0,210.0,99.0,'11111222,11111222,11144222' 
ADCP,ioos:station:wmo:42361:1,2005-12-26T22:00:00Z,27.5500,-92.4900,122.0,3.0,210.0,99.0,'11111222,11111222,11144222' 
ADCP,ioos:station:wmo:42361:1,2005-12-26T23:00:00Z,27.5500,-92.4900,122.0,3.0,210.0,99.0,'11111222,11111222,11144222' 
ADCP,ioos:station:wmo:42361:1,2005-12-27T00:00:00Z,27.5500,-92.4900,122.0,2.0,170.0,99.0,'11111222,11111222,11144222' 
ADCP,ioos:station:wmo:42361:1,2005-12-27T01:00:00Z,27.5500,-92.4900,122.0,2.0,160.0,99.0,'11111222,11111222,11144222' 
ADCP,ioos:station:wmo:42361:1,2005-12-27T02:00:00Z,27.5500,-92.4900,122.0,6.0,170.0,99.0,'11111222,11111222,11144222' 
ADCP,ioos:station:wmo:42361:1,2005-12-27T03:00:00Z,27.5500,-92.4900,122.0,8.0,160.0,99.0,'11111222,11111222,11144222' 
ADCP,ioos:station:wmo:42361:1,2005-12-27T04:00:00Z,27.5500,-92.4900,122.0,8.0,170.0,99.0,'11111222,11111222,11144222' 
ADCP,ioos:station:wmo:42361:1,2005-12-27T05:00:00Z,27.5500,-92.4900,122.0,9.0,160.0,99.0,'11111222,11111222,11144222' 
ADCP,ioos:station:wmo:42361:1,2005-12-27T06:00:00Z,27.5500,-92.4900,122.0,10.0,160.0,99.0,'11111222,11111222,11144222' 
ADCP,ioos:station:wmo:42361:1,2005-12-27T07:00:00Z,27.5500,-92.4900,122.0,10.0,150.0,99.0,'11111222,11111222,11144222' 
ADCP,ioos:station:wmo:42361:1,2005-12-27T08:00:00Z,27.5500,-92.4900,122.0,9.0,160.0,99.0,'11111222,11111222,11144222' 
ADCP,ioos:station:wmo:42361:1,2005-12-27T09:00:00Z,27.5500,-92.4900,122.0,9.0,160.0,99.0,'11111222,11111222,11144222' 
ADCP,ioos:station:wmo:42361:1,2005-12-27T10:00:00Z,27.5500,-92.4900,122.0,10.0,160.0,99.0,'11111222,11111222,11144222' 
ADCP,ioos:station:wmo:42361:1,2005-12-27T11:00:00Z,27.5500,-92.4900,122.0,10.0,160.0,99.0,'11111222,11111222,11144222' 
ADCP,ioos:station:wmo:42361:1,2005-12-27T12:00:00Z,27.5500,-92.4900,122.0,11.0,170.0,99.0,'11111222,11111222,11144222' 
ADCP,ioos:station:wmo:42361:1,2005-12-27T13:00:00Z,27.5500,-92.4900,122.0,12.0,170.0,99.0,'11111222,11111222,11144222' 
ADCP,ioos:station:wmo:42361:1,2005-12-27T14:00:00Z,27.5500,-92.4900,122.0,11.0,180.0,99.0,'11111222,11111222,11144222' 
ADCP,ioos:station:wmo:42361:1,2005-12-27T15:00:00Z,27.5500,-92.4900,122.0,12.0,180.0,99.0,'11111222,11111222,11144222' 
ADCP,ioos:station:wmo:42361:1,2005-12-27T16:00:00Z,27.5500,-92.4900,122.0,12.0,180.0,99.0,'11111222,11111222,11144222' 
ADCP,ioos:station:wmo:42361:1,2005-12-27T17:00:00Z,27.5500,-92.4900,122.0,12.0,180.0,99.0,'11111222,11111222,11144222' 
ADCP,ioos:station:wmo:42361:1,2005-12-27T18:00:00Z,27.5500,-92.4900,122.0,12.0,200.0,99.0,'11111222,11111222,11144222' 
ADCP,ioos:station:wmo:42361:1,2005-12-27T19:00:00Z,27.5500,-92.4900,122.0,13.0,200.0,99.0,'11111222,11111222,11144222' 
ADCP,ioos:station:wmo:42361:1,2005-12-27T20:00:00Z,27.5500,-92.4900,122.0,13.0,210.0,99.0,'11111222,11111222,11144222' 
ADCP,ioos:station:wmo:42361:1,2005-12-27T21:00:00Z,27.5500,-92.4900,122.0,12.0,200.0,99.0,'11111222,11111222,11144222' 
ADCP,ioos:station:wmo:42361:1,2005-12-27T22:00:00Z,27.5500,-92.4900,122.0,12.0,200.0,99.0,'11111222,11111222,11144222' 
ADCP,ioos:station:wmo:42361:1,2005-12-27T23:00:00Z,27.5500,-92.4900,122.0,12.0,210.0,99.0,'11111222,11111222,11144222' 
ADCP,ioos:station:wmo:42361:1,2005-12-28T00:00:00Z,27.5500,-92.4900,122.0,12.0,200.0,99.0,'11111222,11111222,11144222' 
ADCP,ioos:station:wmo:42361:1,2005-12-28T01:00:00Z,27.5500,-92.4900,122.0,12.0,190.0,99.0,'11111222,11111222,11144222' 
ADCP,ioos:station:wmo:42361:1,2005-12-28T02:00:00Z,27.5500,-92.4900,122.0,11.0,200.0,99.0,'11111222,11111222,11144222' 
ADCP,ioos:station:wmo:42361:1,2005-12-28T03:00:00Z,27.5500,-92.4900,122.0,13.0,200.0,99.0,'11111222,11111222,11144222' 
ADCP,ioos:station:wmo:42361:1,2005-12-28T04:00:00Z,27.5500,-92.4900,122.0,14.0,200.0,99.0,'11111222,11111222,11144222' 